Theta_e
303 303 304 304 305 305 302 302 302 301 300 301 300 299 299 299 298 297 298 299 301 302 303 304 304 305 304 304 303 302 301 301 301 301 301 300 299 298 297 296 294 294
302 302 302 303 303 303 303 302 302 303 301 301 301 300 299 299 298 297 297 298 298 300 301 302 303 304 304 303 302 301 301 300 300 301 300 298 298 297 296 295 294 293
301 301 301 302 303 303 302 301 301 303 303 302 301 300 299 298 297 297 297 297 297 298 299 300 301 302 302 302 302 300 298 298 298 297 298 298 296 296 294 293 291 290
301 301 302 302 302 302 301 301 300 301 302 301 301 300 300 298 297 296 296 295 296 296 296 297 298 298 300 300 299 297 297 297 297 295 295 293 293 294 292 291 290 288
300 300 301 301 300 301 300 300 299 300 301 301 300 299 297 296 295 293 293 293 293 293 293 293 294 294 294 295 295 295 294 295 294 293 294 292 291 292 290 289 288 287
299 300 300 300 299 299 299 299 298 298 299 299 299 297 296 296 294 293 292 292 292 292 292 292 292 292 292 293 293 294 293 292 291 292 293 292 290 289 288 288 287 286
298 298 298 299 297 298 298 298 297 296 296 297 295 295 295 294 293 293 292 292 291 291 291 291 292 292 291 291 292 292 291 292 290 291 291 289 288 287 286 287 286 285
296 296 297 297 296 295 293 294 294 294 294 293 294 294 294 294 293 292 292 291 291 291 291 291 291 292 291 291 291 291 290 291 290 290 290 289 288 287 286 286 285 284
294 293 294 293 293 293 292 292 293 292 292 293 294 293 292 293 293 292 291 291 290 290 290 290 291 291 290 291 291 291 290 290 290 290 290 288 287 287 285 285 284 284
293 292 291 291 292 292 292 292 292 291 290 292 293 292 292 291 291 291 290 290 290 289 289 290 290 290 290 291 291 291 290 289 289 289 289 288 287 286 284 284 283 282
291 291 291 291 292 291 291 291 291 291 290 291 290 290 290 290 288 289 289 289 289 289 289 289 289 289 289 290 290 290 290 289 288 288 288 287 287 285 284 284 283 283
291 290 291 291 291 290 291 290 290 290 290 290 290 290 289 289 289 288 288 288 288 288 288 288 289 289 289 289 289 289 288 288 287 287 287 286 286 285 284 283 283 282
291 291 291 290 290 291 290 290 290 289 289 289 288 289 289 289 288 288 287 288 288 288 287 287 288 288 288 288 288 288 287 287 286 286 285 285 284 283 282 282 282 281
292 291 290 290 290 289 289 289 289 288 288 287 287 287 288 288 288 287 287 287 287 287 287 286 286 286 287 287 287 287 286 286 285 285 283 283 282 281 281 280 280 280
291 290 290 290 289 289 288 288 287 287 286 286 286 287 288 288 287 287 286 286 286 285 285 285 285 285 286 286 286 285 286 285 284 284 283 282 281 280 280 279 279 279
291 290 290 289 289 289 289 288 287 286 286 285 285 286 286 286 287 287 286 285 285 284 284 284 284 285 285 287 287 285 285 284 284 283 282 282 280 279 279 279 279 279
291 290 289 289 289 288 288 287 287 285 285 285 284 285 286 285 286 286 285 285 285 284 284 284 284 284 286 288 289 288 285 283 283 283 282 281 281 279 278 278 278 278
291 290 289 289 288 288 287 287 286 285 284 284 284 284 284 285 285 285 285 285 285 284 284 284 284 285 288 289 289 289 286 284 283 283 282 281 281 280 279 278 278 278
290 289 289 288 288 287 287 286 285 284 284 283 283 283 283 284 285 284 284 284 284 283 283 283 283 286 288 289 289 289 288 285 283 282 281 281 280 279 279 278 278 279
289 288 288 288 287 286 286 285 285 284 283 283 283 282 283 283 284 284 284 283 283 283 283 282 282 285 289 289 289 289 289 286 282 282 281 281 280 279 279 278 279 279
288 288 288 286 286 286 285 285 284 284 282 282 282 282 282 283 284 284 283 283 283 283 283 282 281 287 289 289 289 289 288 286 282 282 281 280 279 279 279 279 279 280
288 287 287 286 285 285 284 284 283 283 282 282 282 282 282 283 284 284 284 283 283 283 282 282 282 288 288 289 289 290 288 283 282 281 280 280 279 279 279 279 279 280
288 287 286 285 285 284 284 283 282 282 281 282 282 282 283 283 283 283 284 283 282 282 282 281 282 286 288 288 289 290 286 282 281 281 280 279 279 279 279 278 279 279
287 287 286 285 284 284 283 282 282 282 281 282 282 282 283 283 283 283 283 283 282 282 282 281 282 285 288 288 289 288 284 282 281 280 279 279 278 278 279 278 279 281
286 286 286 285 284 283 283 282 281 281 280 281 282 282 283 283 283 282 282 282 282 282 282 281 282 284 287 288 288 287 284 282 281 280 279 278 278 278 279 279 279 281
285 285 284 284 283 282 281 281 280 279 279 280 281 282 282 282 282 282 281 281 281 281 281 281 282 284 286 287 288 287 285 282 281 279 278 278 278 278 278 279 280 281
Wind_Speed
9 9 9 8 8 7 8 9 8 9 9 8 9 8 8 8 7 8 8 8 8 8 8 8 8 8 8 8 9 9 8 10 10 9 10 10 9 10 10 10 9 9
10 9 8 7 7 7 7 8 8 9 9 9 8 8 8 8 8 8 8 8 7 8 8 7 7 8 9 8 9 9 8 8 10 8 9 9 10 9 10 10 9 7
9 9 9 10 10 9 8 7 8 8 9 9 9 9 8 8 9 8 8 8 8 8 8 7 7 7 8 8 8 9 8 9 10 8 9 11 8 10 9 9 7 8
9 10 10 9 9 9 8 8 7 7 7 8 9 9 8 8 8 9 8 8 8 7 6 6 7 7 7 8 7 8 9 9 9 8 8 6 7 9 8 8 8 8
10 9 9 8 7 7 7 8 9 8 9 9 7 7 8 7 8 8 8 8 7 7 7 7 6 6 5 6 6 8 8 8 7 7 8 8 7 9 9 9 9 9
8 9 9 9 8 8 9 9 8 8 8 8 9 8 8 9 9 9 9 9 8 8 8 8 8 6 6 6 6 7 7 7 7 8 8 8 7 6 8 9 10 9
10 9 9 8 8 8 9 9 7 8 8 8 7 9 8 9 9 10 9 10 10 9 9 9 9 8 7 6 7 7 6 7 7 8 8 6 7 5 5 8 10 10
10 7 8 8 8 7 8 8 8 8 7 6 9 8 9 10 10 9 9 10 10 10 9 9 9 8 8 7 8 7 6 6 8 9 9 9 9 9 7 7 8 9
7 7 7 8 9 8 8 8 8 8 7 9 8 7 7 9 9 9 10 9 9 9 9 9 9 8 8 9 8 9 9 8 9 10 11 11 10 10 10 8 8 9
7 6 7 8 9 9 9 8 8 7 7 8 8 7 9 7 7 8 8 9 9 9 9 9 9 8 8 9 10 10 10 10 9 9 10 10 11 10 9 10 10 9
8 7 9 10 10 8 9 8 8 8 7 8 7 7 7 7 6 6 8 8 8 9 9 9 9 10 10 9 8 8 9 9 9 9 9 9 9 10 10 10 10 12
9 8 10 10 10 9 10 9 9 8 8 7 7 8 7 7 8 7 7 8 7 8 9 9 8 9 9 10 9 8 6 7 8 8 9 9 9 9 10 10 11 11
10 11 10 8 9 9 8 7 8 8 8 8 7 8 8 8 7 8 6 8 8 7 8 8 8 8 8 8 8 8 8 8 8 7 7 7 7 9 9 9 9 10
11 8 8 9 7 7 7 7 7 7 7 6 6 8 8 8 9 9 8 8 8 7 7 7 8 8 8 8 8 8 8 9 9 9 9 7 7 7 8 9 9 9
8 8 7 7 8 8 8 7 7 7 6 7 7 7 7 8 7 8 8 8 6 7 7 7 8 8 8 9 9 9 9 9 9 9 9 9 8 7 8 8 9 9
9 8 9 8 9 9 8 8 8 7 7 7 7 7 7 7 7 8 8 8 8 7 7 6 7 6 9 13 11 9 9 8 8 9 10 10 10 9 8 7 8 8
9 10 9 10 10 8 8 8 8 7 8 8 8 7 8 8 8 9 8 8 9 9 8 7 6 6 12 14 13 14 11 10 11 10 11 11 11 11 11 10 8 7
10 8 9 10 8 10 9 8 8 8 8 8 8 8 7 7 9 8 9 9 8 8 8 8 8 10 15 16 16 15 12 11 9 9 9 10 11 11 10 10 11 9
8 9 10 9 10 9 8 8 9 8 9 8 9 7 6 8 9 9 9 8 9 9 9 9 8 12 16 17 17 17 15 11 8 9 9 9 10 10 10 10 10 10
8 8 9 9 7 8 8 9 9 10 9 8 7 7 8 8 8 9 7 9 8 9 8 8 7 12 17 17 17 18 15 12 8 9 8 8 10 10 10 11 12 12
8 8 8 7 8 8 9 9 10 8 8 8 8 9 9 9 9 8 8 8 8 8 7 7 6 12 15 16 16 15 15 10 7 7 7 7 8 9 10 11 12 11
8 8 8 7 8 8 9 9 9 10 10 8 7 7 6 6 6 7 8 8 7 7 7 6 5 12 13 14 15 15 15 8 7 8 8 7 7 9 9 8 8 10
9 9 8 8 9 10 10 10 9 8 7 7 8 8 8 8 8 7 7 8 8 8 8 6 6 11 15 16 16 16 12 7 8 7 7 8 8 9 8 8 8 9
8 9 10 10 9 11 10 8 7 6 8 8 9 9 8 8 7 6 6 7 9 8 8 8 6 10 15 15 17 16 11 9 8 8 8 7 7 7 6 7 8 11
8 8 9 9 9 8 7 8 8 8 6 6 6 7 7 6 6 6 6 5 6 7 9 9 7 9 15 15 17 16 13 9 9 8 9 7 7 7 6 7 7 9
6 8 7 8 8 7 6 7 6 6 6 6 5 5 5 5 5 6 7 6 6 7 7 8 8 7 11 17 15 15 14 9 8 9 9 9 8 8 8 5 6 7
Wind_Direction
197 197 202 204 209 202 192 193 191 187 186 182 186 190 195 202 196 201 202 199 198 197 197 196 192 193 191 186 185 182 186 192 195 194 195 193 197 191 191 192 189 187
202 198 200 202 207 205 199 190 191 187 185 184 185 184 193 191 200 198 203 203 201 203 198 198 197 197 193 188 186 184 188 189 195 190 191 192 196 189 195 192 191 189
200 200 200 203 204 204 199 193 189 190 184 186 182 182 186 190 191 195 200 201 199 201 199 200 199 200 196 195 187 187 187 189 195 190 187 196 187 188 192 182 179 183
208 207 208 210 206 204 199 193 198 191 184 183 190 186 183 183 180 184 190 195 196 195 197 197 202 200 198 194 186 187 191 193 195 180 188 186 188 183 182 176 172 174
203 209 211 210 209 203 197 200 197 195 192 190 184 180 174 168 172 177 180 186 186 187 189 199 200 200 196 190 184 186 189 188 177 171 177 186 187 176 174 163 167 169
208 206 205 205 201 197 204 204 201 193 192 186 186 176 179 172 174 176 177 182 187 185 190 192 193 195 187 190 185 191 183 177 173 167 175 179 176 175 163 167 162 164
205 202 206 202 201 202 204 205 198 196 194 189 172 186 171 174 174 177 179 183 182 187 188 188 190 188 185 178 186 190 190 179 162 166 168 166 155 159 166 165 167 163
203 202 200 200 202 204 205 203 196 195 191 182 188 183 176 177 179 178 180 180 181 186 188 189 191 187 180 177 181 183 189 177 165 167 169 165 162 167 168 170 161 157
200 201 197 202 204 207 208 203 199 195 191 191 189 182 188 182 180 178 179 179 182 184 184 185 185 184 183 182 187 184 183 181 173 170 170 168 173 175 171 163 159 163
208 202 201 205 208 208 208 204 198 196 191 201 195 182 188 193 183 178 175 178 180 180 181 182 183 184 183 191 191 187 185 181 176 177 175 175 174 169 165 165 165 157
214 203 207 209 210 204 208 200 200 196 193 199 192 195 193 179 184 177 177 179 180 179 182 186 187 185 187 190 190 187 183 176 174 175 177 177 174 169 167 167 168 170
214 210 214 212 208 206 204 199 197 194 194 202 191 193 189 187 178 179 179 181 183 186 186 189 185 187 190 190 187 178 173 172 173 176 176 171 168 167 173 177 174 172
212 214 212 212 209 207 203 200 197 195 191 197 193 192 187 184 182 177 181 181 190 185 188 184 185 187 189 185 181 177 174 170 170 170 168 171 173 172 177 180 178 170
214 210 209 209 206 203 201 200 196 195 196 193 186 193 192 188 181 180 182 185 188 186 185 180 180 184 186 185 182 178 172 174 172 170 167 170 173 176 176 178 174 172
203 205 203 202 200 201 199 196 193 192 190 188 192 196 191 189 181 179 174 181 176 177 177 178 183 186 185 183 180 178 174 172 170 167 164 165 170 172 176 173 170 172
199 195 196 194 198 201 199 190 189 187 186 189 194 192 188 182 179 177 175 177 172 174 174 178 186 186 186 183 177 173 171 163 159 164 164 167 169 171 168 175 177 171
196 201 187 197 201 194 194 188 187 182 187 191 191 188 186 181 174 178 177 174 176 176 179 186 189 190 187 181 169 165 164 165 168 172 171 172 174 176 174 164 162 167
201 193 193 200 188 197 189 187 179 182 189 189 188 188 187 177 181 180 175 176 176 177 182 188 193 191 186 184 175 168 167 169 172 170 175 176 180 177 169 165 162 157
191 194 200 195 196 189 183 178 182 184 188 186 192 186 175 184 184 175 180 175 174 176 185 188 194 190 188 183 181 176 167 162 173 172 173 180 172 170 167 164 158 154
198 196 200 200 185 182 180 182 183 192 187 186 178 175 183 187 182 180 175 178 179 182 188 189 190 191 187 185 186 180 164 161 168 169 170 170 172 169 166 165 164 160
200 198 200 189 184 182 183 187 188 184 181 183 178 179 181 185 180 178 180 178 181 180 177 178 183 182 181 179 177 163 156 150 156 157 162 166 167 167 169 171 168 166
197 198 195 186 184 184 186 190 187 183 183 178 174 180 185 181 189 179 175 175 172 169 165 176 181 180 174 177 173 161 152 146 156 159 158 158 158 164 166 169 168 163
195 191 190 187 187 187 192 188 182 181 178 168 171 177 177 184 184 178 174 170 169 170 168 171 179 180 178 179 175 156 150 153 155 156 157 159 164 164 164 162 168 168
191 188 191 191 189 194 189 182 176 176 177 173 173 172 181 184 174 167 167 167 167 170 168 165 175 181 177 177 172 158 152 157 159 154 156 156 154 156 153 159 167 168
192 192 190 186 189 187 175 173 178 179 169 166 172 169 175 165 163 159 157 161 168 164 161 159 166 176 174 175 171 159 156 158 154 152 151 155 152 151 153 155 159 166
188 186 183 179 178 167 167 169 153 142 157 160 158 154 153 156 157 155 156 161 159 160 166 163 165 177 180 178 171 160 157 152 152 151 156 155 155 153 149 152 155 158